Asheville, NC

5:30 PM EDT on August 22, 2017 (GMT -0400)
Asheville Regional

Weather History for KAVL - September, 2007

Change the Weather History Date:

Friday, September 7, 2007

  Actual Average Record
Temperature  
Mean Temperature 72 °F 69 °F  
Max Temperature 83 °F 80 °F 95 °F (1925)
Min Temperature 60 °F 59 °F 42 °F (1924)
Degree Days  
Heating Degree Days 0 0  
Month to date heating degree days 0 0  
Since 1 July heating degree days 0 2  
Cooling Degree Days 7 5  
Month to date cooling degree days 47 38  
Year to date cooling degree days 860 795  
Growing Degree Days 22 (Base 50)    
Moisture  
Dew Point 60 °F    
Average Humidity 69    
Maximum Humidity 96    
Minimum Humidity 42    
Precipitation  
Precipitation 0.00 in 0.14 in 3.78 in (2004)
Month to date precipitation 0.00 0.94  
Year to date precipitation 22.42 32.55  
Snow  
Snow 0.00 in 0.00 in 0.00 in ()
Month to date snowfall 0.0 0.0  
Since 1 July snowfall 0.0 0.0  
Since 1 September snowfall 0.0 0.0  
Snow Depth -    
Sea Level Pressure  
Sea Level Pressure 30.20 in    
Wind  
Wind Speed 3 mph (SSE)    
Max Wind Speed 15 mph    
Max Gust Speed 21 mph    
Visibility 9 miles    
Events      
T = Trace of Precipitation, MM = Missing Value Source: NWS Daily Summary

Daily Weather History Graph

Daily Weather History Graph

Search for Another Location

Airport or City:

Trip Planner

Search our weather history database for the weather conditions in past years. The results will help you decide how hot, cold, wet, or windy it might be!

Date:

Astronomy

Sep. 07, 2007 Rise Set
Actual Time 7:06 AM EDT 7:49 PM EDT
Civil Twilight 6:40 AM EDT 8:14 PM EDT
Nautical Twilight 6:10 AM EDT 8:45 PM EDT
Astronomical Twilight 5:39 AM EDT 9:16 PM EDT
Moon 2:58 AM EDT (9/7) 5:54 PM EDT (9/7)
Length of Visible Light 13h 33m
Length of Day
12h 42m
Waning Crescent, 15% of the Moon is Illuminated
Sep 7
Waning Crescent
Sep 11
New
Sep 19
First Quarter
Sep 26
Full
Oct 3
Last Quarter

Hourly Weather History & Observations

Time (EDT) Temp. Heat Index Dew Point Humidity Pressure Visibility Wind Dir Wind Speed Gust Speed Precip Events Conditions
12:54 AM 64.0 °F - 61.0 °F 90% 30.22 in 9.0 mi Calm Calm - N/A   Clear
1:54 AM 63.0 °F - 59.0 °F 87% 30.22 in 8.0 mi Calm Calm - N/A   Clear
2:54 AM 62.1 °F - 59.0 °F 90% 30.21 in 8.0 mi Calm Calm - N/A   Clear
3:54 AM 63.0 °F - 59.0 °F 87% 30.20 in 9.0 mi Calm Calm - N/A   Clear
4:54 AM 61.0 °F - 59.0 °F 93% 30.21 in 7.0 mi Calm Calm - N/A   Clear
5:54 AM 61.0 °F - 57.9 °F 90% 30.22 in 8.0 mi Calm Calm - N/A   Clear
6:54 AM 62.1 °F - 59.0 °F 90% 30.23 in 8.0 mi Calm Calm - N/A   Clear
7:54 AM 62.1 °F - 59.0 °F 90% 30.27 in 6.0 mi Calm Calm - N/A   Clear
8:54 AM 66.9 °F - 62.1 °F 84% 30.27 in 7.0 mi Calm Calm - N/A   Clear
9:54 AM 73.0 °F - 63.0 °F 71% 30.27 in 9.0 mi South 4.6 mph - N/A   Clear
10:54 AM 75.9 °F - 61.0 °F 60% 30.26 in 10.0 mi Variable 4.6 mph - N/A   Partly Cloudy
11:54 AM 79.0 °F - 61.0 °F 54% 30.25 in 10.0 mi SSW 6.9 mph - N/A   Partly Cloudy
12:54 PM 82.0 °F 83.0 °F 62.1 °F 51% 30.22 in 10.0 mi SSE 8.1 mph 16.1 mph N/A   Scattered Clouds
1:54 PM 81.0 °F 81.0 °F 57.0 °F 44% 30.19 in 10.0 mi SSE 11.5 mph 18.4 mph N/A   Scattered Clouds
2:54 PM 81.0 °F 81.3 °F 59.0 °F 47% 30.17 in 10.0 mi South 10.4 mph 17.3 mph N/A   Clear
3:54 PM 82.9 °F 82.6 °F 57.9 °F 42% 30.14 in 10.0 mi South 10.4 mph - N/A   Scattered Clouds
4:54 PM 82.0 °F 82.0 °F 57.9 °F 44% 30.14 in 10.0 mi Variable 5.8 mph - N/A   Scattered Clouds
5:54 PM 81.0 °F 80.7 °F 55.0 °F 41% 30.13 in 10.0 mi Variable 6.9 mph - N/A   Clear
6:54 PM 79.0 °F - 59.0 °F 50% 30.13 in 10.0 mi South 4.6 mph - N/A   Clear
7:54 PM 75.9 °F - 60.1 °F 58% 30.13 in 10.0 mi SE 3.5 mph - N/A   Clear
8:54 PM 73.0 °F - 61.0 °F 66% 30.15 in 10.0 mi Calm Calm - N/A   Clear
9:54 PM 69.1 °F - 62.1 °F 78% 30.16 in 8.0 mi Calm Calm - N/A   Clear
10:54 PM 66.9 °F - 61.0 °F 81% 30.17 in 8.0 mi Calm Calm - N/A   Clear
11:54 PM 66.0 °F - 61.0 °F 84% 30.17 in 7.0 mi Calm Calm - N/A   Clear